Weather History for Stanley, ID

Change the Weather History Date:

Saturday, December 1, 2012

  Actual Average Record
Temperature  
Mean Temperature 35 °F 17 °F  
Max Temperature 38 °F 27 °F 47 °F (1999)
Min Temperature 32 °F 7 °F -19 °F (1967)
Degree Days  
Heating Degree Days 30 48  
Month to date heating degree days 30 48  
Since 1 July heating degree days 2695 3145  
Cooling Degree Days 0 0  
Month to date cooling degree days 0 0  
Year to date cooling degree days 3 3  
Moisture  
Dew Point 32 °F    
Average Humidity 89    
Maximum Humidity 96    
Minimum Humidity 82    
Precipitation  
Precipitation 0.27 in 0.03 in 0.84 in (2005)
Month to date precipitation 0.27 0.03  
Year to date precipitation 20.77 15.82  
Sea Level Pressure  
Sea Level Pressure 29.77 in    
Wind  
Wind Speed 8 mph (SSE)    
Max Wind Speed 16 mph    
Max Gust Speed 24 mph    
T = Trace of Precipitation, MM = Missing Value Source: NWS Daily Summary

Daily Weather History Graph

Daily Weather History Graph

Search for Another Location

Airport:

Trip Planner

Search our weather history database for the weather conditions in past years. The results will help you decide how hot, cold, wet, or windy it might be!

Date:

Astronomy

Dec. 01, 2012 Rise Set
Actual Time 7:55 AM MST 5:02 PM MST
Civil Twilight 7:23 AM MST 5:34 PM MST
Nautical Twilight 6:46 AM MST 6:10 PM MST
Astronomical Twilight 6:12 AM MST 6:45 PM MST
Moon 7:58 PM MST (12/1) 10:09 AM MST (12/1)
Length of Visible Light 10h 11m
Length of Day
9h 06m
Waning Gibbous, 91% of the Moon is Illuminated
Dec 1
Waning Gibbous
Dec 6
Last Quarter
Dec 13
New
Dec 19
First Quarter
Dec 28
Full

Hourly Weather History & Observations

Time (MST) Temp. Windchill Dew Point Humidity Pressure Visibility Wind Dir Wind Speed Gust Speed Precip Events Conditions
12:51 AM 34.0 °F 29.8 °F 30.9 °F 89% 29.75 in - Variable 4.6 mph - N/A   Unknown
1:51 AM 33.1 °F - 30.9 °F 92% 29.77 in - Calm Calm - N/A   Unknown
2:51 AM 33.1 °F 26.1 °F 30.0 °F 89% 29.78 in - SSE 8.1 mph - 0.01 in   Unknown
3:51 AM 33.1 °F 26.9 °F 30.9 °F 92% 29.76 in - SSE 6.9 mph - 0.01 in   Unknown
4:51 AM 33.1 °F 25.5 °F 30.9 °F 92% 29.80 in - SE 9.2 mph - 0.01 in   Unknown
5:51 AM 33.1 °F 25.5 °F 30.9 °F 92% 29.82 in - SSE 9.2 mph - 0.03 in   Unknown
6:51 AM 33.1 °F 26.9 °F 30.9 °F 92% 29.79 in - SSE 6.9 mph - 0.02 in   Unknown
7:51 AM 33.1 °F 26.1 °F 30.9 °F 92% 29.80 in - SE 8.1 mph - 0.01 in   Unknown
8:51 AM 34.0 °F 25.5 °F 30.9 °F 89% 29.80 in - SSE 11.5 mph 19.6 mph 0.01 in   Unknown
9:51 AM 33.1 °F 26.9 °F 32.0 °F 96% 29.82 in - SSE 6.9 mph - 0.05 in   Unknown
10:51 AM 34.0 °F 25.5 °F 32.0 °F 92% 29.81 in - SE 11.5 mph 16.1 mph 0.03 in   Unknown
11:51 AM 35.1 °F 27.9 °F 33.1 °F 92% 29.79 in - SE 9.2 mph 18.4 mph 0.02 in   Unknown
12:51 PM 36.0 °F 30.3 °F 34.0 °F 93% 29.78 in - SE 6.9 mph - 0.01 in   Unknown
1:51 PM 36.0 °F 32.1 °F 34.0 °F 93% 29.78 in - Variable 4.6 mph - 0.03 in   Unknown
2:51 PM 35.1 °F 27.9 °F 33.1 °F 92% 29.80 in - SE 9.2 mph - 0.01 in   Unknown
3:51 PM 36.0 °F 30.3 °F 33.1 °F 89% 29.78 in - SSE 6.9 mph - 0.01 in   Unknown
4:51 PM 36.0 °F 30.3 °F 32.0 °F 86% 29.78 in - SSE 6.9 mph - N/A   Unknown
5:51 PM 35.1 °F 28.6 °F 32.0 °F 89% 29.77 in - SSE 8.1 mph - N/A   Unknown
6:51 PM 36.0 °F 31.1 °F 32.0 °F 86% 29.78 in - SSE 5.8 mph - N/A   Unknown
7:51 PM 36.0 °F 27.5 °F 30.0 °F 79% 29.75 in - South 12.7 mph - N/A   Unknown
8:51 PM 36.0 °F 28.0 °F 32.0 °F 86% 29.72 in - SE 11.5 mph 18.4 mph N/A   Unknown
9:51 PM 36.0 °F 28.5 °F 33.1 °F 89% 29.70 in - SE 10.4 mph - N/A   Unknown
10:51 PM 36.0 °F 28.5 °F 33.1 °F 89% 29.70 in - SSE 10.4 mph 20.7 mph N/A   Unknown
11:51 PM 37.0 °F 28.9 °F 33.1 °F 86% 29.67 in - SSE 12.7 mph 19.6 mph 0.01 in   Unknown